This is the latest recevied weather packets stored in our database for station/object OM2WX-6. If no packets are shown the sender has not sent any weather packets the latest 1 day(s).
| Time | Temp. | Humidity | Pressure | Rain* | Wind** | Luminosity | Snow |
|---|---|---|---|---|---|---|---|
| 1777965585 | 20.56° C | 46% | 1003.6 hPa | 0 mm | 0 m/s | - | - |
| 1777965285 | 20.56° C | 46% | 1003.5 hPa | 0 mm | 0 m/s | - | - |
| 1777964985 | 20° C | 47% | 1003.8 hPa | 0 mm | 0 m/s | - | - |
| 1777964685 | 20° C | 47% | 1003.4 hPa | 0 mm | 0 m/s | - | - |
| 1777964385 | 19.44° C | 47% | 1004.2 hPa | 0 mm | 0 m/s | - | - |
| 1777964085 | 19.44° C | 48% | 1004 hPa | 0 mm | 0 m/s | - | - |
| 1777963785 | 18.89° C | 48% | 1004 hPa | 0 mm | 0 m/s | - | - |
| 1777963485 | 18.89° C | 48% | 1004.1 hPa | 0 mm | 0 m/s | - | - |
| 1777963186 | 18.89° C | 49% | 1004.1 hPa | 0 mm | 0 m/s | - | - |
| 1777962885 | 18.89° C | 49% | 1004.5 hPa | 0 mm | 0 m/s | - | - |
| 1777962585 | 17.78° C | 51% | 1005.1 hPa | 0 mm | 0 m/s | - | - |
| 1777962285 | 17.78° C | 51% | 1005 hPa | 0 mm | 0 m/s | - | - |
| 1777961986 | 17.78° C | 51% | 1004.8 hPa | 0 mm | 0 m/s | - | - |
| 1777961685 | 17.78° C | 51% | 1003.7 hPa | 0 mm | 0 m/s | - | - |
| 1777961386 | 17.78° C | 51% | 1003.7 hPa | 0 mm | 0 m/s | - | - |
| 1777961086 | 17.78° C | 51% | 1004.2 hPa | 0 mm | 0 m/s | - | - |
| 1777960786 | 17.22° C | 51% | 1003.8 hPa | 0 mm | 0 m/s | - | - |
| 1777960486 | 17.22° C | 52% | 1003.6 hPa | 0 mm | 0 m/s | - | - |
| 1777960186 | 16.67° C | 52% | 1003.4 hPa | 0 mm | 0 m/s | - | - |
| 1777959886 | 16.67° C | 52% | 1003.8 hPa | 0 mm | 0 m/s | - | - |
| 1777959586 | 16.67° C | 51% | 1003.3 hPa | 0 mm | 0 m/s | - | - |
| 1777959286 | 16.67° C | 51% | 1003.8 hPa | 0 mm | 0 m/s | - | - |
| 1777958986 | 16.67° C | 51% | 1003.7 hPa | 0 mm | 0 m/s | - | - |
| 1777958686 | 16.67° C | 51% | 1003.7 hPa | 0 mm | 0 m/s | - | - |
| 1777958386 | 16.67° C | 51% | 1003.5 hPa | 0 mm | 0 m/s | - | - |
* Rain latest hour (hover to see other rain measurements)
** Current wind speed in m/s (hover to see current wind gust speed)